Wink, TX

8:47 AM CDT on July 21, 2017 (GMT -0500)
Winkler County

Weather History for KINK - October, 2012

Change the Weather History Date:

Sunday, October 21, 2012

  Actual Average Record
Temperature  
Mean Temperature 71 °F -  
Max Temperature 91 °F 74 °F 95 °F (2007)
Min Temperature 51 °F 49 °F 32 °F (1999)
Cooling Degree Days 6    
Growing Degree Days 21 (Base 50)    
Moisture  
Dew Point 45 °F    
Average Humidity 49    
Maximum Humidity 89    
Minimum Humidity 13    
Precipitation  
Precipitation 0.00 in - - ()
Sea Level Pressure  
Sea Level Pressure 29.76 in    
Wind  
Wind Speed 5 mph (SW)    
Max Wind Speed 15 mph    
Max Gust Speed 23 mph    
Visibility 10 miles    
Events      
Averages and records for this station are not official NWS values.
T = Trace of Precipitation, MM = Missing Value Source: NWS Daily Summary

Daily Weather History Graph

Daily Weather History Graph

Search for Another Location

Airport or City:

Trip Planner

Search our weather history database for the weather conditions in past years. The results will help you decide how hot, cold, wet, or windy it might be!

Date:

Astronomy

Oct. 21, 2012 Rise Set
Actual Time 8:00 AM CDT 7:13 PM CDT
Civil Twilight 7:36 AM CDT 7:38 PM CDT
Nautical Twilight 7:07 AM CDT 8:06 PM CDT
Astronomical Twilight 6:39 AM CDT 8:34 PM CDT
Moon 2:16 PM CDT 12:12 AM CDT
Length of Visible Light 12h 01m
Length of Day
11h 12m
Waxing Crescent, 45% of the Moon is Illuminated
Oct 21
Waxing Crescent
Oct 21
First Quarter
Oct 29
Full
Nov 6
Last Quarter
Nov 13
New

Hourly Weather History & Observations

Time (CDT) Temp. Dew Point Humidity Pressure Visibility Wind Dir Wind Speed Gust Speed Precip Events Conditions
12:53 AM 61.0 °F 51.1 °F 70% 29.70 in - SE 6.9 mph - N/A   Clear
1:53 AM 60.1 °F 51.1 °F 72% 29.70 in - ESE 5.8 mph - N/A   Clear
2:53 AM 57.0 °F 51.1 °F 81% 29.71 in - Calm Calm - N/A   Clear
3:53 AM 57.9 °F 52.0 °F 81% 29.70 in - ESE 3.5 mph - N/A   Clear
4:53 AM 55.4 °F 50.0 °F 82% 29.83 in - North 4.6 mph - N/A   Clear
5:53 AM 53.1 °F 50.0 °F 89% 29.73 in 10.0 mi North 4.6 mph - N/A   Clear
6:53 AM 53.1 °F 50.0 °F 89% 29.75 in 10.0 mi Calm Calm - N/A   Clear
7:53 AM 51.1 °F 46.0 °F 83% 29.78 in 10.0 mi Calm Calm - N/A   Clear
8:53 AM 55.9 °F 48.9 °F 77% 29.81 in 10.0 mi Calm Calm - N/A   Clear
9:53 AM 66.0 °F 53.1 °F 63% 29.82 in 10.0 mi Calm Calm - N/A   Clear
10:53 AM 75.9 °F 46.9 °F 36% 29.82 in 10.0 mi SW 4.6 mph - N/A   Clear
11:53 AM 82.0 °F 44.1 °F 26% 29.81 in 10.0 mi WSW 6.9 mph - N/A   Clear
12:53 PM 87.1 °F 39.9 °F 19% 29.79 in 10.0 mi WNW 9.2 mph - N/A   Clear
1:53 PM 89.1 °F 39.0 °F 17% 29.76 in 10.0 mi WSW 9.2 mph 16.1 mph N/A   Clear
2:53 PM 91.0 °F 34.0 °F 13% 29.73 in 10.0 mi WSW 13.8 mph 23.0 mph N/A   Clear
3:53 PM 89.1 °F 37.0 °F 16% 29.73 in 10.0 mi West 15.0 mph 23.0 mph N/A   Clear
4:53 PM 90.0 °F 37.9 °F 16% 29.73 in 10.0 mi WSW 12.7 mph - N/A   Clear
5:53 PM 89.1 °F 39.0 °F 17% 29.73 in 10.0 mi WSW 6.9 mph - N/A   Clear
6:53 PM 84.0 °F 39.9 °F 21% 29.73 in 10.0 mi SW 6.9 mph - N/A   Clear
7:53 PM 75.9 °F 42.1 °F 30% 29.76 in - SSE 9.2 mph - N/A   Clear
8:53 PM 72.0 °F 44.1 °F 37% 29.77 in - South 6.9 mph - N/A   Clear
9:53 PM 70.0 °F 44.1 °F 39% 29.77 in - South 4.6 mph - N/A   Clear
10:53 PM 68.0 °F 45.0 °F 43% 29.77 in - Calm Calm - N/A   Clear
11:53 PM 64.0 °F 46.0 °F 52% 29.78 in - Calm Calm - N/A   Clear